Flag for Norway Weather past 2 weeks in Mo i Rana, Norway

Now
63 °F

Sprinkles. Broken clouds.


Feels Like: 63 °F
Forecast: 58 / 69 °F
Wind: 5 mph from Northwest

Location: Mo I Rana / Rossvoll

Current Time: Jul 30, 2014 at 5:37:04 PM

Latest Report: Jul 30, 2014 at 4:50 PM


Visibility: N/A

Pressure: 29.59 "Hg

Humidity: 88%

Dew point: 59 °F

Location of Mo i RanaLocation

Historic Weather in Mo i Rana — Graph

°F

Mo i Rana temperature yesterday

Maximum temperature yesterday: 73 °F (at 5:20 PM)
Minimum temperature yesterday: 54 °F (at 5:50 AM)
Average temperature yesterday: 66 °F

Past Weeks' High & Low Weather Summary

 TemperatureHumidityPressure
High86 °F (Jul 21, 3:20 PM)94% (Jul 16, 6:20 AM)30.36 "Hg (Jul 16, 6:20 AM)
Low54 °F (Jul 28, 5:50 AM)28% (Jul 27, 3:50 PM)29.59 "Hg (Jul 30, 1:20 PM)
Average69 °F62%30.06 "Hg
* Reported Jul 15 3:20 PM — Jul 30 3:50 PM, Mo i Rana, Weather by CustomWeather, © 2014

Note: Actual official high and low records may vary slightly from our data, if they occured in-between our weather recording intervals... More about our weather records

Advertising

Mo i Rana weather history for previous 24 hours

 ConditionsComfort  
Time TempWeatherWind HumidityBarometerVisibility
3:50 PM
Jul 30
64 °FScattered showers. Partly sunny.6 mph88%29.59 "HgN/A
3:20 PM64 °FSprinkles. Partly sunny.6 mph83%29.59 "HgN/A
2:50 PM68 °FThunderstorms. Partly sunny.8 mph69%29.59 "HgN/A
2:20 PM68 °FPartly sunny.3 mph78%29.59 "HgN/A
1:50 PM66 °FPartly sunny.5 mph83%29.59 "HgN/A
1:20 PM66 °FPartly sunny.6 mph83%29.59 "HgN/A
12:50 PM64 °FBroken clouds.7 mph88%29.62 "HgN/A
12:20 PM63 °FBroken clouds.9 mph88%29.62 "HgN/A
11:50 AM70 °FSprinkles. Partly sunny.9 mph60%29.62 "HgN/A
11:20 AM70 °FScattered showers. Partly sunny.8 mph60%29.62 "HgN/A
10:50 AM70 °FPartly sunny.13 mph60%29.62 "HgN/A
10:20 AM68 °FPartly sunny.13 mph64%29.62 "HgN/A
9:50 AM66 °FPartly sunny.6 mph73%29.65 "HgN/A
9:20 AM64 °FPartly sunny.6 mph78%29.65 "HgN/A
8:50 AM61 °FPartly sunny.3 mph88%29.65 "HgN/A
8:20 AM63 °FSprinkles. Partly sunny.6 mph77%29.68 "HgN/A
7:50 AM68 °FSprinkles. Partly sunny.10 mph56%29.65 "HgN/A
6:50 AM68 °FPartly sunny.14 mph53%29.65 "HgN/A
6:20 AM68 °FPartly sunny.12 mph49%29.68 "HgN/A
5:50 AM66 °FScattered clouds.14 mph52%29.68 "HgN/A
10:20 PM
Jul 29
59 °FSunny.No wind68%29.77 "Hg10 mi
9:50 PM61 °FSunny.No wind63%29.77 "Hg10 mi
9:20 PM64 °FSunny.3 mph56%29.77 "Hg10 mi
8:50 PM68 °FSunny.5 mph49%29.77 "Hg10 mi
7:50 PM72 °FSunny.5 mph36%29.77 "Hg10 mi
6:50 PM73 °FSunny.5 mph33%29.77 "Hg10 mi
6:20 PM73 °FSunny.7 mph33%29.80 "Hg10 mi
5:50 PM73 °FPassing clouds.7 mph33%29.80 "HgN/A
5:20 PM73 °FPassing clouds.7 mph33%29.80 "HgN/A
Weather by CustomWeather, © 2014

See weather overviewHow to use our weather pages